CAPE
834 1024 995 1079 998 892 1102 1062 1096 1055 882 765 684 617 736 721 583 849 754 355 181 156 143 135 331 512 690 756 1121 1253 802 1042 1476 940 637 816 1106 1494 1476 1414 1486 988 680 533 479 588 543 434 343 172 310 617 488 389 302 308 220 138 134 98 30 3 0 0 1 0 0 0 0 0 0 0 0 0 0 0 0 0 0 0 0 0 0 0 0
508 837 1071 1136 978 1047 989 1051 1203 1449 1175 885 781 762 631 874 854 1115 998 857 369 117 188 236 19 288 336 402 711 740 702 824 862 997 803 872 1214 1530 1507 1451 1281 1260 875 561 441 636 537 444 413 166 116 841 708 655 550 385 342 290 236 151 61 64 32 4 0 0 0 0 0 0 0 0 0 0 0 0 0 0 0 0 0 0 0 0 0
660 1018 1110 1180 1247 943 974 907 1100 871 1036 1144 1383 1441 1089 1141 860 754 922 682 649 248 154 106 70 250 355 324 507 876 226 288 1065 1278 1041 910 1086 1216 1384 1352 1275 1306 1360 1116 593 511 443 404 446 333 174 177 777 785 746 620 502 435 367 238 105 89 98 29 3 0 0 0 0 0 0 0 0 0 0 0 0 0 0 0 0 0 0 0 0
1211 1200 1276 1304 1054 1057 1435 1316 1375 1076 1096 1534 1527 1067 1253 1142 1140 1006 639 886 760 393 367 258 181 125 239 354 570 751 187 364 794 1214 832 914 766 916 1091 1216 1199 1074 1367 1699 965 453 357 415 407 368 378 186 432 786 595 699 639 566 538 356 214 128 160 132 20 18 0 0 0 0 0 0 0 0 0 0 0 0 0 0 0 0 0 0 0
1364 1320 1282 1286 1336 1190 1292 1402 1338 1429 1404 1430 1388 1294 1351 1474 1108 1067 1331 994 450 355 375 225 317 224 84 258 304 220 333 560 766 1083 720 1075 1368 691 846 851 1081 1236 1346 1359 1267 991 500 392 428 400 460 342 162 191 138 121 53 418 692 589 374 265 218 174 95 47 50 4 0 0 0 0 0 0 0 0 0 0 0 0 0 0 0 0 0
1385 1168 1274 1205 1275 1214 1203 1286 1478 1438 1559 1639 1594 1602 1470 1339 967 795 941 962 932 616 605 596 556 127 324 526 341 366 419 636 926 1085 1140 879 1586 1172 1622 798 754 706 1011 1409 1439 1310 886 485 490 426 314 380 300 282 225 174 108 90 598 752 619 468 372 274 173 101 30 17 0 0 1 0 0 0 0 0 0 0 0 0 0 0 0 0 0
1222 1434 1111 1209 1217 1158 1270 1388 1196 1404 1418 1510 1645 1576 1439 1268 1145 1408 936 1087 948 700 928 720 1015 319 488 208 149 536 385 500 885 1243 1370 1393 1596 1212 1400 1874 2004 766 836 1030 1288 1087 1062 956 620 605 501 253 348 344 297 427 256 160 208 939 743 621 438 370 314 211 101 75 24 0 6 0 0 0 0 0 0 0 0 0 0 0 0 0 0
1097 1263 1084 1072 1250 1248 1383 1102 1040 1383 1090 1508 1537 1334 1431 1313 1184 1117 1201 1258 1033 1088 1287 533 976 727 405 221 468 674 616 693 871 855 863 1252 1340 1318 1329 1692 1643 1625 1945 1336 990 859 1032 1350 1316 945 639 554 369 396 387 337 451 350 360 727 778 745 555 426 372 324 246 129 102 46 22 4 0 0 0 0 0 0 0 0 0 0 0 0 0
1221 1292 1283 1076 941 1104 1071 1091 1039 1294 1201 1306 1170 1463 1460 1171 1299 1195 1387 1386 1113 1120 1674 1184 939 741 620 453 776 494 1031 847 884 966 1373 1089 1026 929 887 1235 1760 2003 1400 1282 1695 822 1093 1413 1322 1260 1100 783 696 770 719 464 494 483 440 521 966 1034 705 541 514 363 348 275 190 153 46 36 9 0 0 0 0 0 0 0 0 0 0 0 0
1236 1373 1085 1071 1035 835 908 1057 1237 1256 1152 1261 1299 1398 1540 1730 1695 1438 1323 1574 1488 1194 1096 1183 761 1053 560 700 634 692 968 770 1050 1358 998 1112 1144 1084 1180 1140 910 1022 1050 1169 1039 1306 790 843 1122 1035 1203 942 1075 1014 804 812 918 1070 939 1032 965 880 850 800 772 620 523 445 349 288 288 114 47 25 1 0 1 0 0 0 0 0 0 0 0
1294 1029 780 753 680 778 876 906 848 1166 1344 1169 1098 1255 1531 1672 1613 1572 1397 1367 1335 1370 859 667 924 709 605 609 841 675 866 974 712 817 986 925 982 1037 1121 1215 1134 821 996 928 995 1073 868 1264 1129 1086 1020 755 1204 1225 1093 1113 907 952 947 1109 966 1048 900 988 862 797 706 614 543 493 386 366 293 87 58 8 0 0 1 1 0 1 0 0 0
1324 899 827 512 717 567 818 844 998 1343 1218 1014 1233 1216 1424 1519 1593 1391 1514 1172 1359 1006 762 572 611 426 720 756 574 760 818 1271 857 634 898 937 778 636 816 970 800 747 717 782 772 781 828 854 1119 851 1074 692 690 1034 1058 808 893 1015 898 1054 1168 1017 1070 959 1003 863 812 773 834 630 526 462 362 364 204 86 34 6 2 0 0 0 0 0 0
1254 1041 903 862 602 496 635 1084 1109 975 766 912 1042 1278 1249 1592 1514 1149 1334 1485 1345 1189 825 650 496 555 512 674 689 825 1159 1030 956 1238 696 702 459 483 717 1000 637 697 791 799 896 1077 839 1010 1104 1172 1201 897 687 656 550 692 557 498 686 790 838 971 1120 1066 1022 1061 982 932 850 831 743 656 554 461 402 283 132 46 28 22 0 0 0 0 1
1241 1076 832 710 724 822 1072 1321 1296 1133 836 1147 1323 1414 1297 1570 1289 979 970 1144 1088 1001 685 525 274 434 582 676 774 1168 1217 878 1027 1055 805 827 434 408 589 870 730 657 710 722 692 761 889 1155 1410 1324 1330 1414 974 855 806 435 133 82 79 213 494 836 1042 1077 1041 1027 1031 961 949 868 729 756 863 528 455 420 352 218 101 77 23 1 0 0 0
1463 974 732 965 1018 1078 1303 1390 1264 1298 1207 1138 1408 1344 1436 1239 1092 1135 891 899 712 796 685 560 479 631 611 617 601 638 644 823 965 975 1088 1072 905 321 432 627 643 771 661 615 509 925 991 936 1074 1324 1385 1322 1064 1175 135 28 0 0 0 0 0 119 514 532 560 652 652 807 845 828 701 703 627 645 582 509 460 409 351 200 156 167 61 2 2
1200 1073 1507 1166 1353 1211 1428 1255 1485 1340 1404 1336 1236 1486 1354 1259 1135 1028 1067 858 905 988 876 664 527 406 316 405 487 396 279 636 811 741 940 888 567 677 509 738 584 532 807 468 632 741 1175 935 459 785 1002 859 694 558 79 0 0 0 0 0 0 0 18 186 292 477 415 411 390 562 590 475 461 475 535 684 662 606 503 356 231 161 140 144 72
1148 1067 1014 1100 1084 1025 831 1112 1293 1345 1140 1269 1388 1416 1525 1392 1107 1022 961 1071 815 772 961 705 577 602 972 558 306 324 452 534 577 740 1053 1086 641 440 413 538 472 626 604 662 780 970 572 1090 432 529 360 485 114 103 160 0 0 0 0 0 0 0 0 0 33 144 329 325 410 286 364 528 641 606 522 474 614 619 614 514 311 207 114 111 124
823 694 727 716 832 939 829 1135 1442 1020 1199 1436 1131 1461 1428 1283 1136 1230 1094 796 1036 972 1196 727 819 742 609 1123 673 578 567 663 470 327 712 1240 814 440 266 229 442 689 322 353 551 543 806 14 155 140 155 33 0 0 0 0 0 0 0 0 0 0 0 0 0 16 347 555 638 603 584 507 587 494 429 350 230 371 553 568 466 254 216 138 80
717 447 362 489 878 768 555 985 920 1316 1310 1291 1460 1345 1095 963 1284 1351 1220 977 815 725 820 678 502 516 620 1024 1114 1143 865 468 411 296 274 453 474 527 422 739 400 346 504 619 602 98 0 1 0 0 0 0 0 0 0 0 0 0 0 0 0 0 0 0 0 0 17 213 562 596 638 528 444 360 404 420 360 300 286 398 523 422 268 278 172
643 140 240 761 792 746 695 654 445 508 541 838 1470 1211 1399 1149 1374 1380 1322 1190 1246 906 565 599 497 378 577 602 768 1155 1243 1176 416 364 202 144 127 206 324 434 426 258 330 302 12 8 19 0 0 0 0 0 0 0 0 0 0 0 0 0 0 0 0 0 0 0 0 45 227 222 232 200 214 93 104 146 294 365 246 298 480 503 441 302 303
602 614 569 322 782 907 734 567 1099 331 275 482 736 826 1163 1192 1479 1478 1220 1254 1134 914 632 332 334 254 417 594 849 1027 1193 1119 618 305 344 160 94 81 21 12 18 25 3 1 1 2 0 0 0 0 0 0 0 0 0 0 0 0 0 0 0 0 0 0 0 0 0 0 3 12 16 9 15 5 4 21 62 166 390 341 355 374 456 395 258
869 462 444 496 527 589 538 537 633 505 447 519 731 868 1060 1107 1368 1380 1291 974 1347 1235 1219 1206 873 756 573 778 683 601 720 918 790 707 697 396 122 13 2 6 0 12 15 3 0 0 0 0 0 0 0 0 0 0 0 0 0 0 0 0 0 0 0 0 0 0 0 0 0 0 1 1 1 2 1 2 2 0 286 256 238 374 417 398 366
781 703 863 627 726 614 456 379 406 771 385 359 664 544 918 1051 1096 1104 983 1166 978 763 1288 1117 950 836 512 473 608 559 443 404 535 639 538 696 223 18 4 0 0 8 78 0 0 0 0 0 0 0 0 0 0 0 0 0 0 0 0 0 0 0 0 0 0 0 0 0 0 0 0 0 0 0 0 0 0 0 10 128 273 254 322 430 384
958 816 850 623 698 736 546 662 623 663 668 643 333 553 769 728 923 1044 1060 1149 1250 1363 1319 1087 1058 918 898 324 376 578 750 389 484 805 668 469 222 8 4 0 0 0 0 3 0 0 0 0 0 0 0 0 0 0 0 0 0 0 0 0 0 0 0 0 0 0 0 0 0 0 0 0 0 0 0 0 0 0 0 0 21 163 250 284 265
752 741 416 407 354 462 762 499 135 247 154 63 226 472 622 606 721 690 763 859 972 1108 955 1050 1072 705 563 799 479 576 588 527 440 641 1154 663 326 5 1 0 0 0 0 0 0 0 0 0 0 0 0 0 0 0 0 0 0 0 0 0 0 0 0 0 0 0 0 0 0 0 0 0 0 0 0 0 0 0 0 0 0 0 26 68 57
709 626 314 314 519 82 42 40 104 162 295 348 278 294 475 209 398 522 573 727 854 731 548 630 646 581 686 408 178 252 615 702 692 635 351 673 160 172 0 0 0 0 0 0 0 0 0 0 0 0 0 0 0 0 0 0 0 0 0 0 0 0 0 0 0 0 0 0 0 0 0 0 0 0 0 0 0 0 0 0 0 0 0 4 12
430 130 73 54 85 75 120 302 165 52 78 102 22 13 108 43 163 479 532 580 624 509 371 92 2 0 0 0 0 0 277 453 414 528 306 288 317 22 0 0 0 0 0 0 0 0 0 0 0 0 0 0 0 0 0 0 0 0 0 0 0 0 0 0 0 0 0 0 0 0 0 0 0 0 0 0 0 0 0 0 0 0 0 0 0
96 26 34 50 4 5 67 108 103 116 76 22 0 0 8 13 0 23 0 69 164 9 1 10 11 5 2 2 0 0 0 0 0 0 24 91 0 46 0 3 10 5 0 0 0 0 0 0 0 0 0 0 0 0 0 0 0 0 0 0 0 0 0 0 0 0 0 0 0 0 0 0 0 0 0 0 0 0 0 0 0 0 0 0 0
36 4 0 5 20 14 28 74 124 34 0 0 0 0 0 0 10 0 0 0 0 0 1 0 0 0 4 3 2 6 5 7 2 0 0 21 27 8 193 87 123 1 0 0 0 0 0 0 0 0 0 0 0 0 0 0 0 0 0 0 0 0 0 0 0 0 0 0 0 0 0 0 0 0 0 0 0 0 0 0 0 0 0 0 0
13 0 12 0 0 2 0 0 0 0 2 0 0 0 0 0 0 0 0 0 0 5 1 38 97 87 14 0 0 0 0 0 0 0 0 6 0 4 0 2 3 29 2 0 0 0 0 0 0 0 0 0 0 0 0 0 0 0 0 0 0 0 0 0 0 0 0 0 0 0 0 0 0 0 0 0 0 0 0 0 0 0 0 0 0
6 2 0 0 0 0 0 0 0 0 0 0 0 0 0 0 0 0 0 0 0 0 0 16 42 82 22 1 2 9 109 157 62 6 4 297 9 0 4 0 71 17 0 0 0 0 0 0 0 0 0 0 0 0 0 0 0 0 0 0 0 0 0 0 0 0 0 0 0 0 0 0 0 0 0 0 0 0 0 0 0 0 0 0 0
3 0 0 0 0 0 0 0 0 0 0 0 0 0 0 0 0 0 0 0 0 0 0 0 1 10 5 15 56 43 12 0 0 0 0 0 2 0 0 0 12 6 0 0 0 0 0 0 0 0 0 0 0 0 0 0 0 0 0 0 0 0 0 0 0 0 0 0 0 0 0 0 0 0 0 0 0 0 0 0 0 0 0 0 0
0 0 0 0 0 0 0 0 0 0 0 0 0 0 0 0 0 0 0 0 0 0 0 0 0 0 0 0 0 0 12 0 0 0 0 0 0 0 0 1 0 11 0 0 0 0 0 0 0 0 0 0 0 0 0 0 0 0 0 0 0 0 0 0 0 0 0 0 0 0 0 0 0 0 0 0 0 0 0 0 0 0 0 0 0
0 0 0 0 0 0 0 0 0 0 0 0 0 0 0 0 0 0 0 0 0 0 1 0 0 0 24 0 0 53 15 0 10 0 0 0 0 0 0 0 0 0 0 0 0 0 0 0 0 0 0 0 0 0 0 0 0 0 0 0 0 0 0 0 0 0 0 0 0 0 0 0 0 0 0 0 0 0 0 0 0 0 0 0 0
0 0 0 0 0 0 0 0 0 0 0 0 0 0 0 0 0 0 0 0 0 3 0 0 0 2 0 0 0 0 0 2 4 0 0 0 0 0 0 0 0 0 0 0 0 0 0 0 0 0 0 0 0 0 0 0 0 0 0 0 0 0 0 0 0 0 0 0 0 0 0 0 0 0 0 0 0 0 0 0 0 0 0 0 0
0 0 0 0 0 0 0 0 0 0 0 0 0 0 0 0 0 0 0 0 0 0 0 0 0 0 0 0 0 0 0 0 0 0 0 0 0 0 0 0 0 0 0 0 0 0 5 0 0 0 0 0 0 0 0 0 0 0 0 0 0 0 0 0 0 0 0 0 0 0 0 0 0 0 0 0 0 0 0 0 0 0 0 0 0
0 6 0 0 0 0 0 0 0 0 0 0 0 0 0 0 0 0 0 0 0 0 0 0 0 0 0 0 0 0 0 0 0 0 0 0 0 0 0 0 0 0 0 0 0 0 0 0 0 0 0 0 0 0 0 0 0 0 0 0 0 0 0 0 0 0 0 0 0 0 0 0 0 0 0 0 0 0 0 0 0 0 0 0 0
20 21 0 0 0 0 0 0 0 0 0 0 0 0 0 1 1 0 1 0 0 0 0 0 0 54 1 9 0 0 0 17 0 41 0 0 0 0 0 0 0 0 5 0 0 0 0 0 0 0 0 0 0 0 0 0 0 0 0 0 0 0 0 0 0 0 0 0 0 0 0 0 0 0 0 0 0 0 0 0 0 0 0 0 0
100 44 0 0 0 0 0 0 0 0 0 0 0 1 0 1 4 5 122 26 59 30 4 0 0 14 20 42 62 29 0 100 23 130 0 5 2 0 0 0 0 0 0 0 0 0 0 0 0 0 0 0 0 0 0 0 0 0 0 0 0 0 0 0 0 0 0 0 0 0 0 0 0 0 0 0 0 0 0 0 0 0 0 0 0
53 3 3 0 0 1 0 0 0 0 18 0 0 67 49 103 210 181 230 265 67 211 166 50 40 21 92 135 152 88 5 144 231 71 79 39 0 0 0 0 0 0 0 0 0 0 0 0 0 0 1 0 3 0 0 0 0 0 0 0 0 0 0 0 0 0 0 0 0 0 0 0 0 0 0 0 0 0 0 0 0 0 0 0 0
371 42 89 40 6 0 2 0 15 5 49 13 24 41 123 74 364 402 441 408 460 334 414 318 397 312 206 279 356 134 105 35 0 49 72 16 0 0 8 0 0 0 0 0 0 0 0 0 5 11 4 7 0 0 0 0 0 0 0 0 0 0 0 0 0 0 0 0 0 0 0 0 0 0 0 0 0 0 0 0 0 0 0 0 0
550 169 162 140 95 18 40 85 58 307 200 234 151 9 20 342 306 281 665 663 548 573 528 489 556 524 860 600 41 159 0 0 0 0 0 0 0 0 0 0 0 0 0 0 0 0 1 6 6 0 0 0 0 0 0 0 0 0 0 0 0 0 0 0 0 0 0 0 0 0 0 0 0 0 0 0 0 0 0 0 0 0 0 0 0
788 982 375 297 225 127 46 166 325 377 615 734 0 0 0 13 461 626 622 795 837 811 927 947 1132 1315 581 436 447 349 232 225 0 0 0 0 0 0 0 0 0 1 5 0 0 10 4 0 0 0 0 0 0 0 0 0 0 0 0 0 0 0 0 0 0 0 0 0 0 0 0 0 0 0 0 0 0 0 0 0 0 0 0 0 0
936 972 701 732 425 371 204 192 339 590 490 824 758 498 71 0 319 874 994 1076 1046 1088 950 733 475 118 182 478 497 200 249 308 27 0 0 0 0 0 0 0 72 0 0 0 0 0 0 0 0 0 0 0 0 0 0 0 0 0 0 0 0 0 0 0 0 0 0 0 0 0 0 0 0 0 0 0 0 0 0 0 0 0 0 0 0
776 1078 886 953 1070 1075 882 645 630 706 755 770 751 833 669 356 206 661 908 1124 1025 912 978 612 466 239 516 443 320 282 207 153 160 20 167 153 72 13 0 0 0 68 0 0 0 0 0 0 0 0 0 0 0 0 0 0 0 0 0 0 0 0 0 0 0 0 0 0 0 0 0 0 0 0 0 0 0 0 0 0 0 0 0 0 0
831 821 1174 1239 1244 1170 1058 938 728 839 734 657 746 745 771 737 524 437 682 881 927 1054 736 566 487 406 297 326 126 133 471 338 266 241 143 0 131 61 0 0 78 0 0 0 0 0 0 0 0 0 0 0 0 0 0 0 0 0 0 0 0 0 0 0 0 0 0 0 0 0 0 0 0 0 0 0 0 0 0 0 0 0 0 0 0
863 800 1035 1028 1087 1025 1014 1166 1118 820 865 702 623 680 734 809 764 615 472 487 506 605 503 356 289 335 472 344 167 361 406 309 243 278 62 145 157 58 0 138 184 0 0 0 0 0 0 0 0 0 0 0 0 0 0 0 0 0 0 0 0 0 0 0 0 0 0 0 0 0 0 0 0 0 0 0 0 0 0 0 0 0 0 0 0
1198 1321 1077 978 1108 1084 1136 1211 1160 1071 953 788 700 675 704 766 846 698 438 23 74 305 688 339 317 348 235 348 253 230 380 270 239 163 36 0 0 0 103 182 47 0 0 0 0 0 0 0 0 0 0 0 0 0 0 0 0 0 0 0 0 0 0 0 0 0 0 0 0 0 0 0 0 0 0 0 0 0 0 0 0 0 0 0 0
999 1085 930 906 891 1012 1086 1074 1010 1213 1092 944 853 780 824 814 749 588 390 94 88 197 628 351 421 415 324 392 175 13 22 283 116 56 0 48 23 0 0 0 0 0 0 0 0 0 0 0 0 0 0 0 0 0 0 0 0 0 0 0 0 0 0 0 0 0 0 0 0 0 0 0 0 0 0 0 0 0 0 0 0 0 0 0 0
1054 927 1037 987 770 743 830 787 934 998 850 823 855 841 806 842 808 724 615 499 414 316 121 29 162 323 3 0 4 176 2 207 229 0 239 243 133 5 0 0 25 0 0 0 0 0 0 0 0 0 0 0 0 0 0 0 0 0 0 0 0 0 0 0 0 0 0 0 0 0 0 0 0 0 0 0 0 0 0 0 0 0 0 0 0
800 971 734 628 717 748 796 857 812 736 595 593 791 721 731 774 705 634 526 435 316 518 384 298 134 0 0 0 0 177 281 15 80 253 230 184 162 82 11 0 0 0 0 0 0 0 0 0 0 0 0 0 0 0 0 0 0 0 0 0 0 0 0 0 0 0 0 0 0 0 0 0 0 0 0 0 0 0 0 0 0 0 0 0 0
Wind_Speed
15 15 13 12 12 13 13 12 13 15 16 14 12 14 13 12 10 9 10 10 12 14 10 10 12 12 12 13 13 16 25 22 21 24 24 23 22 23 25 23 22 24 26 25 26 27 26 26 25 23 23 24 23 22 21 20 19 19 19 nan nan nan nan nan nan nan nan nan nan nan nan nan nan nan nan nan nan nan nan nan nan nan nan nan nan
13 14 14 13 12 12 12 12 11 13 14 15 15 15 12 15 12 10 12 11 11 10 9 10 nan 10 13 13 13 14 25 24 24 18 22 21 19 20 24 23 24 24 24 23 24 26 26 26 25 24 22 25 23 22 22 22 21 20 19 18 nan nan nan nan nan nan nan nan nan nan nan nan nan nan nan nan nan nan nan nan nan nan nan nan nan
11 12 14 13 14 13 12 12 11 12 11 11 16 14 13 14 13 14 16 13 10 10 6 8 nan 13 10 8 13 14 28 25 19 19 20 19 19 19 20 23 23 25 24 21 21 24 25 25 25 23 22 22 22 22 22 22 22 22 21 19 18 nan nan nan nan nan nan nan nan nan nan nan nan nan nan nan nan nan nan nan nan nan nan nan nan
11 12 14 12 13 13 12 11 12 12 10 11 13 13 12 13 13 11 13 13 11 10 5 8 9 9 11 10 10 18 26 23 18 17 17 18 20 17 17 17 20 22 22 23 21 20 23 24 23 23 22 21 23 23 22 23 22 22 22 21 19 18 19 19 nan nan nan nan nan nan nan nan nan nan nan nan nan nan nan nan nan nan nan nan nan
13 13 14 12 12 12 9 8 9 9 9 10 11 11 10 10 9 8 9 12 12 11 10 12 13 11 nan 9 11 23 22 19 14 16 18 17 17 17 15 16 17 20 23 25 26 24 22 23 23 23 22 23 22 23 21 21 nan 21 21 21 20 19 19 20 nan nan nan nan nan nan nan nan nan nan nan nan nan nan nan nan nan nan nan nan nan
14 15 13 13 12 11 8 7 7 9 10 8 9 9 9 7 6 7 10 12 14 12 13 12 12 15 13 10 16 19 19 16 15 18 17 16 15 18 18 19 19 18 19 23 23 24 24 23 24 24 24 23 22 22 22 21 22 nan 20 20 19 19 20 20 19 19 nan nan nan nan nan nan nan nan nan nan nan nan nan nan nan nan nan nan nan
14 13 14 13 11 11 9 9 8 9 8 7 6 8 8 6 6 9 9 11 11 11 13 12 11 16 13 15 15 20 18 17 18 17 16 17 18 19 19 20 21 19 20 18 18 20 21 22 24 23 23 22 21 21 21 24 20 19 19 18 18 18 18 20 19 19 20 nan nan nan nan nan nan nan nan nan nan nan nan nan nan nan nan nan nan
15 14 15 11 10 10 10 10 8 8 7 7 6 6 6 6 6 7 7 7 7 9 11 8 10 11 17 23 15 14 17 17 18 19 17 17 19 19 21 21 21 21 21 18 15 14 14 17 19 19 20 19 20 19 20 19 22 19 20 17 17 18 17 18 19 18 20 20 21 nan nan nan nan nan nan nan nan nan nan nan nan nan nan nan nan
14 14 14 12 10 11 12 10 9 8 6 7 6 4 3 4 5 5 4 6 8 10 9 10 11 15 15 22 16 14 11 15 16 16 15 17 19 20 20 21 21 21 18 16 13 14 12 15 17 16 16 16 17 17 17 17 17 17 16 18 16 17 16 16 17 18 18 20 20 21 nan nan nan nan nan nan nan nan nan nan nan nan nan nan nan
13 15 14 14 12 13 12 10 9 8 7 6 6 5 4 4 5 6 6 8 10 9 10 11 13 15 15 17 15 10 9 12 9 10 15 19 20 21 22 21 20 18 16 14 14 15 16 17 18 16 15 16 16 15 15 16 17 17 17 17 18 17 15 14 15 17 18 19 19 20 20 21 nan nan nan nan nan nan nan nan nan nan nan nan nan
16 17 14 13 13 13 12 12 11 9 8 7 7 7 6 4 5 7 7 9 10 10 11 13 14 15 17 14 8 6 9 12 12 8 17 17 20 24 22 21 21 18 16 16 16 15 16 15 13 13 13 15 18 18 16 16 15 15 15 16 15 14 15 16 16 16 16 16 18 20 21 22 21 nan nan nan nan nan nan nan nan nan nan nan nan
19 17 14 12 16 14 12 11 11 10 8 6 6 7 7 5 6 7 10 11 11 9 13 13 13 15 13 12 9 4 8 9 10 11 12 19 22 22 15 19 16 14 14 16 16 14 13 14 11 11 10 15 17 16 17 16 15 15 16 16 16 15 14 15 15 17 18 17 16 17 21 21 20 19 19 nan nan nan nan nan nan nan nan nan nan
19 18 15 15 17 14 12 10 11 11 10 5 5 8 8 7 9 8 10 10 9 10 12 12 14 10 9 10 7 8 10 11 11 14 19 15 20 17 14 16 16 12 12 14 15 14 12 11 10 8 12 15 15 17 18 19 21 21 21 20 18 18 18 17 17 16 16 17 17 17 18 18 20 20 19 19 20 nan nan nan nan nan nan nan nan
19 20 17 15 15 13 11 11 10 12 11 7 6 9 9 9 9 9 9 10 8 11 12 12 12 11 9 7 9 11 11 11 10 14 19 20 21 18 12 12 16 16 13 13 12 11 9 9 8 9 12 13 14 13 14 17 21 nan nan 23 22 21 22 23 22 21 20 20 19 20 20 19 17 18 18 18 18 18 19 nan nan nan nan nan nan
18 21 16 12 13 12 11 12 10 9 9 7 7 10 10 9 9 8 11 9 9 10 12 11 12 13 9 7 9 10 9 10 10 14 16 18 23 22 16 15 16 12 13 12 11 9 10 9 8 9 11 12 12 12 17 nan nan nan nan nan nan 22 23 23 22 22 22 22 21 22 21 21 23 18 16 17 17 18 18 19 21 23 nan nan nan
18 20 16 14 10 11 11 12 10 8 7 6 8 9 10 10 11 9 10 10 8 9 12 10 11 13 10 8 11 12 10 10 12 13 15 17 23 21 15 17 16 13 11 13 12 11 9 9 9 10 12 12 13 14 nan nan nan nan nan nan nan nan nan 23 22 22 21 21 21 21 19 18 18 18 18 15 13 17 18 20 20 23 24 22 nan
18 18 18 16 12 12 11 10 11 10 8 7 7 8 10 10 11 10 10 10 11 9 10 10 10 8 10 12 13 12 10 13 12 14 15 18 21 22 19 20 15 13 13 13 13 11 9 10 12 12 17 16 18 19 18 nan nan nan nan nan nan nan nan nan nan 24 23 22 22 19 19 19 19 18 16 17 18 17 17 20 22 24 24 24 23
14 15 16 14 12 15 14 12 12 11 10 8 8 9 10 10 10 10 11 12 13 11 11 9 9 8 7 10 12 11 14 14 13 15 16 18 18 21 23 23 19 15 14 13 13 13 13 nan 17 19 19 nan nan nan nan nan nan nan nan nan nan nan nan nan nan nan 26 26 27 25 24 22 22 21 18 17 17 19 18 17 21 23 25 27 nan
17 15 13 11 11 11 10 11 14 13 12 10 9 9 9 10 11 10 11 13 14 13 12 10 9 8 6 9 11 9 15 16 15 19 20 17 17 20 21 20 19 17 15 15 16 nan nan nan nan nan nan nan nan nan nan nan nan nan nan nan nan nan nan nan nan nan nan 29 31 32 31 29 31 29 26 21 18 17 17 18 17 20 23 25 27
14 14 12 12 12 10 9 10 11 13 12 11 12 13 10 11 12 11 11 13 14 15 14 13 9 8 10 10 7 11 14 14 18 18 20 20 20 16 19 21 21 20 19 17 nan nan nan nan nan nan nan nan nan nan nan nan nan nan nan nan nan nan nan nan nan nan nan nan 34 34 34 34 35 nan 32 34 29 17 16 18 17 17 19 22 24
13 13 15 14 13 13 11 10 9 13 13 13 11 13 17 14 14 14 13 15 14 16 17 14 13 13 14 9 10 13 14 16 15 16 18 20 nan nan nan nan nan nan nan nan nan nan nan nan nan nan nan nan nan nan nan nan nan nan nan nan nan nan nan nan nan nan nan nan nan nan nan nan nan nan nan nan nan 35 23 19 21 19 20 22 22
10 11 13 13 15 15 14 13 12 14 14 14 14 14 16 16 18 15 14 15 14 15 17 17 18 19 17 15 16 16 15 14 15 15 19 17 18 nan nan nan nan nan nan nan nan nan nan nan nan nan nan nan nan nan nan nan nan nan nan nan nan nan nan nan nan nan nan nan nan nan nan nan nan nan nan nan nan nan 40 33 26 28 28 25 23
12 11 13 15 14 18 18 17 15 15 17 14 15 17 17 17 18 18 15 17 17 14 17 19 19 20 21 18 17 15 13 13 14 14 15 16 18 nan nan nan nan nan nan nan nan nan nan nan nan nan nan nan nan nan nan nan nan nan nan nan nan nan nan nan nan nan nan nan nan nan nan nan nan nan nan nan nan nan nan 36 35 35 37 36 33
13 13 14 15 14 15 17 19 18 17 17 15 17 17 18 19 20 19 17 16 17 18 18 19 19 18 21 19 16 16 14 15 13 16 14 16 19 nan nan nan nan nan nan nan nan nan nan nan nan nan nan nan nan nan nan nan nan nan nan nan nan nan nan nan nan nan nan nan nan nan nan nan nan nan nan nan nan nan nan nan nan 34 36 35 33
15 16 14 16 15 14 16 20 19 17 17 nan 17 19 19 20 21 20 18 18 18 18 19 18 18 19 20 18 19 17 15 15 16 14 13 15 17 nan nan nan nan nan nan nan nan nan nan nan nan nan nan nan nan nan nan nan nan nan nan nan nan nan nan nan nan nan nan nan nan nan nan nan nan nan nan nan nan nan nan nan nan nan nan nan nan
15 15 13 13 14 nan nan nan 16 16 16 16 17 19 21 21 20 21 19 18 17 17 17 18 17 16 16 16 16 15 14 14 14 15 16 15 15 14 nan nan nan nan nan nan nan nan nan nan nan nan nan nan nan nan nan nan nan nan nan nan nan nan nan nan nan nan nan nan nan nan nan nan nan nan nan nan nan nan nan nan nan nan nan nan nan
14 13 nan nan nan nan 13 14 15 nan nan 15 nan nan 21 nan 19 18 18 18 18 18 17 nan nan nan nan nan nan nan 15 15 13 12 15 16 14 nan nan nan nan nan nan nan nan nan nan nan nan nan nan nan nan nan nan nan nan nan nan nan nan nan nan nan nan nan nan nan nan nan nan nan nan nan nan nan nan nan nan nan nan nan nan nan nan
nan nan nan nan nan nan nan 15 15 15 nan nan nan nan nan nan nan nan nan nan 22 nan nan nan nan nan nan nan nan nan nan nan nan nan nan nan nan nan nan nan nan nan nan nan nan nan nan nan nan nan nan nan nan nan nan nan nan nan nan nan nan nan nan nan nan nan nan nan nan nan nan nan nan nan nan nan nan nan nan nan nan nan nan nan nan
nan nan nan nan nan nan nan nan 15 nan nan nan nan nan nan nan nan nan nan nan nan nan nan nan nan nan nan nan nan nan nan nan nan nan nan nan nan nan 14 nan 16 nan nan nan nan nan nan nan nan nan nan nan nan nan nan nan nan nan nan nan nan nan nan nan nan nan nan nan nan nan nan nan nan nan nan nan nan nan nan nan nan nan nan nan nan
nan nan nan nan nan nan nan nan nan nan nan nan nan nan nan nan nan nan nan nan nan nan nan nan nan nan nan nan nan nan nan nan nan nan nan nan nan nan nan nan nan nan nan nan nan nan nan nan nan nan nan nan nan nan nan nan nan nan nan nan nan nan nan nan nan nan nan nan nan nan nan nan nan nan nan nan nan nan nan nan nan nan nan nan nan
nan nan nan nan nan nan nan nan nan nan nan nan nan nan nan nan nan nan nan nan nan nan nan nan nan nan nan nan nan nan 16 16 nan nan nan 13 nan nan nan nan nan nan nan nan nan nan nan nan nan nan nan nan nan nan nan nan nan nan nan nan nan nan nan nan nan nan nan nan nan nan nan nan nan nan nan nan nan nan nan nan nan nan nan nan nan
nan nan nan nan nan nan nan nan nan nan nan nan nan nan nan nan nan nan nan nan nan nan nan nan nan nan nan nan nan nan nan nan nan nan nan nan nan nan nan nan nan nan nan nan nan nan nan nan nan nan nan nan nan nan nan nan nan nan nan nan nan nan nan nan nan nan nan nan nan nan nan nan nan nan nan nan nan nan nan nan nan nan nan nan nan
nan nan nan nan nan nan nan nan nan nan nan nan nan nan nan nan nan nan nan nan nan nan nan nan nan nan nan nan nan nan nan nan nan nan nan nan nan nan nan nan nan nan nan nan nan nan nan nan nan nan nan nan nan nan nan nan nan nan nan nan nan nan nan nan nan nan nan nan nan nan nan nan nan nan nan nan nan nan nan nan nan nan nan nan nan
nan nan nan nan nan nan nan nan nan nan nan nan nan nan nan nan nan nan nan nan nan nan nan nan nan nan nan nan nan nan nan nan nan nan nan nan nan nan nan nan nan nan nan nan nan nan nan nan nan nan nan nan nan nan nan nan nan nan nan nan nan nan nan nan nan nan nan nan nan nan nan nan nan nan nan nan nan nan nan nan nan nan nan nan nan
nan nan nan nan nan nan nan nan nan nan nan nan nan nan nan nan nan nan nan nan nan nan nan nan nan nan nan nan nan nan nan nan nan nan nan nan nan nan nan nan nan nan nan nan nan nan nan nan nan nan nan nan nan nan nan nan nan nan nan nan nan nan nan nan nan nan nan nan nan nan nan nan nan nan nan nan nan nan nan nan nan nan nan nan nan
nan nan nan nan nan nan nan nan nan nan nan nan nan nan nan nan nan nan nan nan nan nan nan nan nan nan nan nan nan nan nan nan nan nan nan nan nan nan nan nan nan nan nan nan nan nan nan nan nan nan nan nan nan nan nan nan nan nan nan nan nan nan nan nan nan nan nan nan nan nan nan nan nan nan nan nan nan nan nan nan nan nan nan nan nan
nan nan nan nan nan nan nan nan nan nan nan nan nan nan nan nan nan nan nan nan nan nan nan nan nan nan nan nan nan nan nan nan nan nan nan nan nan nan nan nan nan nan nan nan nan nan nan nan nan nan nan nan nan nan nan nan nan nan nan nan nan nan nan nan nan nan nan nan nan nan nan nan nan nan nan nan nan nan nan nan nan nan nan nan nan
nan nan nan nan nan nan nan nan nan nan nan nan nan nan nan nan nan nan nan nan nan nan nan nan nan nan nan nan nan nan nan nan nan nan nan nan nan nan nan nan nan nan nan nan nan nan nan nan nan nan nan nan nan nan nan nan nan nan nan nan nan nan nan nan nan nan nan nan nan nan nan nan nan nan nan nan nan nan nan nan nan nan nan nan nan
nan nan nan nan nan nan nan nan nan nan nan nan nan nan nan nan nan nan 18 nan nan nan nan nan nan nan nan nan nan nan nan 28 nan 30 nan nan nan nan nan nan nan nan nan nan nan nan nan nan nan nan nan nan nan nan nan nan nan nan nan nan nan nan nan nan nan nan nan nan nan nan nan nan nan nan nan nan nan nan nan nan nan nan nan nan nan
nan nan nan nan nan nan nan nan nan nan nan nan nan nan nan 17 17 19 18 20 nan 19 21 nan nan nan nan 25 28 nan nan 28 30 nan nan nan nan nan nan nan nan nan nan nan nan nan nan nan nan nan nan nan nan nan nan nan nan nan nan nan nan nan nan nan nan nan nan nan nan nan nan nan nan nan nan nan nan nan nan nan nan nan nan nan nan
28 nan nan nan nan nan nan nan nan nan nan nan nan nan 20 nan 21 21 21 23 22 23 25 25 26 29 30 30 33 31 29 nan nan nan nan nan nan nan nan nan nan nan nan nan nan nan nan nan nan nan nan nan nan nan nan nan nan nan nan nan nan nan nan nan nan nan nan nan nan nan nan nan nan nan nan nan nan nan nan nan nan nan nan nan nan
25 28 24 25 nan nan nan nan nan 27 26 26 25 nan nan 25 26 25 26 26 26 27 29 29 31 33 37 41 nan 36 nan nan nan nan nan nan nan nan nan nan nan nan nan nan nan nan nan nan nan nan nan nan nan nan nan nan nan nan nan nan nan nan nan nan nan nan nan nan nan nan nan nan nan nan nan nan nan nan nan nan nan nan nan nan nan
22 24 23 22 24 26 nan 25 26 28 28 31 nan nan nan nan 29 31 30 29 30 29 31 33 35 38 43 43 36 32 30 34 nan nan nan nan nan nan nan nan nan nan nan nan nan nan nan nan nan nan nan nan nan nan nan nan nan nan nan nan nan nan nan nan nan nan nan nan nan nan nan nan nan nan nan nan nan nan nan nan nan nan nan nan nan
24 23 23 23 23 25 27 26 27 30 36 33 32 33 nan nan 38 33 33 33 34 34 33 35 38 41 41 39 35 30 29 30 nan nan nan nan nan nan nan nan nan nan nan nan nan nan nan nan nan nan nan nan nan nan nan nan nan nan nan nan nan nan nan nan nan nan nan nan nan nan nan nan nan nan nan nan nan nan nan nan nan nan nan nan nan
27 26 25 23 25 27 29 28 29 35 38 32 35 36 34 37 38 38 36 37 37 37 36 44 46 46 45 42 40 36 34 35 37 nan 38 38 nan nan nan nan nan nan nan nan nan nan nan nan nan nan nan nan nan nan nan nan nan nan nan nan nan nan nan nan nan nan nan nan nan nan nan nan nan nan nan nan nan nan nan nan nan nan nan nan nan
28 28 27 28 29 30 31 32 32 40 38 36 32 35 35 36 38 39 37 38 39 41 46 44 45 46 45 44 41 41 41 43 42 43 41 nan 39 nan nan nan nan nan nan nan nan nan nan nan nan nan nan nan nan nan nan nan nan nan nan nan nan nan nan nan nan nan nan nan nan nan nan nan nan nan nan nan nan nan nan nan nan nan nan nan nan
34 35 34 34 35 34 34 34 35 40 40 41 36 37 38 37 39 40 37 37 38 42 45 42 42 44 44 42 40 44 46 46 44 44 nan 45 45 nan nan 40 42 nan nan nan nan nan nan nan nan nan nan nan nan nan nan nan nan nan nan nan nan nan nan nan nan nan nan nan nan nan nan nan nan nan nan nan nan nan nan nan nan nan nan nan nan
40 40 40 39 38 38 37 38 39 43 44 43 41 41 42 41 44 41 39 nan nan 40 44 47 44 41 43 45 46 47 49 48 46 46 nan nan nan nan 43 42 nan nan nan nan nan nan nan nan nan nan nan nan nan nan nan nan nan nan nan nan nan nan nan nan nan nan nan nan nan nan nan nan nan nan nan nan nan nan nan nan nan nan nan nan nan
41 43 43 42 40 40 41 40 40 40 44 42 43 41 40 43 45 42 43 nan nan 43 47 50 47 49 50 50 49 nan nan 48 50 nan nan nan nan nan nan nan nan nan nan nan nan nan nan nan nan nan nan nan nan nan nan nan nan nan nan nan nan nan nan nan nan nan nan nan nan nan nan nan nan nan nan nan nan nan nan nan nan nan nan nan nan
45 45 46 45 43 42 42 40 40 41 44 47 45 42 42 45 47 48 47 47 46 46 49 nan 53 54 nan nan nan 48 nan 49 53 nan 52 52 48 nan nan nan nan nan nan nan nan nan nan nan nan nan nan nan nan nan nan nan nan nan nan nan nan nan nan nan nan nan nan nan nan nan nan nan nan nan nan nan nan nan nan nan nan nan nan nan nan
44 44 45 44 45 45 45 46 45 47 55 53 48 46 49 50 50 50 49 50 49 52 53 53 53 nan nan nan nan 55 56 nan nan 55 54 50 49 nan nan nan nan nan nan nan nan nan nan nan nan nan nan nan nan nan nan nan nan nan nan nan nan nan nan nan nan nan nan nan nan nan nan nan nan nan nan nan nan nan nan nan nan nan nan nan nan
Wind_Direction
282 294 306 301 285 289 295 294 289 284 293 279 276 278 268 277 286 258 234 230 229 209 225 237 254 231 252 257 262 262 274 266 254 262 259 262 266 272 276 273 268 284 283 285 284 284 283 281 280 280 282 283 283 281 277 275 270 265 263 nan nan nan nan nan nan nan nan nan nan nan nan nan nan nan nan nan nan nan nan nan nan nan nan nan nan
295 305 311 303 301 299 289 291 284 287 284 287 285 290 297 292 293 280 261 249 235 231 216 241 nan 257 235 249 248 257 258 251 237 234 264 268 272 275 281 274 271 272 284 288 286 285 282 280 280 278 274 284 283 286 283 281 277 273 270 268 nan nan nan nan nan nan nan nan nan nan nan nan nan nan nan nan nan nan nan nan nan nan nan nan nan
306 313 312 312 307 299 300 302 295 284 293 295 296 301 294 277 275 268 261 246 214 216 223 252 nan 258 257 262 258 258 263 259 258 257 261 280 277 271 272 274 274 273 269 272 283 284 283 280 279 278 272 277 283 279 282 283 282 280 278 276 273 nan nan nan nan nan nan nan nan nan nan nan nan nan nan nan nan nan nan nan nan nan nan nan nan
318 315 303 302 309 303 296 298 299 314 309 294 296 294 283 269 259 257 256 253 217 213 217 255 260 263 266 281 284 257 269 267 275 276 279 270 272 267 271 273 280 279 273 267 265 271 279 280 279 274 275 269 276 280 282 282 283 282 283 281 279 275 272 267 nan nan nan nan nan nan nan nan nan nan nan nan nan nan nan nan nan nan nan nan nan
308 298 298 303 294 288 289 292 303 299 286 281 279 280 274 272 263 238 240 243 228 229 232 241 228 219 nan 273 267 269 268 278 293 280 271 263 269 278 279 283 281 276 275 272 264 259 262 270 271 273 277 277 271 274 275 278 nan 284 288 285 282 279 273 269 nan nan nan nan nan nan nan nan nan nan nan nan nan nan nan nan nan nan nan nan nan
302 303 307 297 290 287 300 298 287 283 274 279 281 276 278 280 271 259 247 247 244 246 239 219 223 233 197 216 240 261 285 288 269 267 268 272 268 271 276 283 279 274 274 273 268 261 260 266 265 265 264 269 276 276 277 277 278 nan 283 282 283 276 272 269 264 262 nan nan nan nan nan nan nan nan nan nan nan nan nan nan nan nan nan nan nan
294 295 293 291 301 304 303 287 289 295 301 295 297 285 274 267 262 263 253 257 262 244 233 226 202 236 230 212 243 273 282 279 273 274 274 271 271 273 271 263 266 273 276 274 270 269 265 269 272 270 273 271 267 270 274 280 279 278 276 281 276 276 275 271 270 265 261 nan nan nan nan nan nan nan nan nan nan nan nan nan nan nan nan nan nan
297 295 287 292 293 288 281 284 292 289 299 305 282 281 273 254 255 261 241 238 258 252 253 252 215 241 237 227 222 246 270 276 280 283 280 278 273 270 266 265 267 266 265 270 283 285 281 275 272 276 275 273 273 271 272 270 276 278 275 280 282 282 276 272 275 272 267 261 257 nan nan nan nan nan nan nan nan nan nan nan nan nan nan nan nan
292 287 281 282 282 277 278 285 292 293 307 307 298 259 243 282 279 266 237 263 265 257 258 248 229 241 237 240 233 226 233 278 282 283 289 281 275 272 273 272 271 271 271 276 282 292 285 281 278 271 266 266 262 262 263 265 264 268 270 261 279 282 279 274 272 272 270 266 263 258 nan nan nan nan nan nan nan nan nan nan nan nan nan nan nan
284 275 278 281 281 276 278 283 285 297 301 307 305 290 253 236 258 251 248 265 270 262 262 247 243 249 243 252 257 261 257 256 252 286 290 281 282 279 275 275 275 277 280 282 273 265 271 267 269 273 269 264 257 258 264 264 261 262 261 262 260 263 272 275 273 276 274 272 268 266 263 262 nan nan nan nan nan nan nan nan nan nan nan nan nan
278 272 273 273 279 272 286 291 291 298 311 307 313 307 288 272 262 276 270 257 256 253 259 245 241 253 255 243 243 238 258 298 309 296 283 281 284 279 277 275 275 271 271 269 265 265 265 269 271 271 274 273 262 254 251 254 260 264 263 258 257 258 261 262 267 270 273 273 272 274 271 268 268 nan nan nan nan nan nan nan nan nan nan nan nan
275 277 277 284 274 279 282 294 301 306 301 310 305 303 297 277 269 265 266 259 261 258 255 263 249 250 259 273 276 228 260 273 270 268 263 274 271 274 280 270 262 272 280 278 275 279 275 265 262 272 279 276 269 264 264 266 268 265 261 254 252 255 259 265 263 260 261 264 267 265 273 275 273 272 270 nan nan nan nan nan nan nan nan nan nan
276 279 279 276 273 280 287 296 296 297 304 315 309 297 292 287 275 258 268 272 266 259 259 256 259 250 262 284 290 284 274 262 269 280 277 283 286 283 291 284 287 285 280 280 283 284 281 277 278 284 277 277 281 277 274 267 259 258 254 252 251 254 261 262 265 268 259 254 252 255 265 272 274 275 275 274 268 nan nan nan nan nan nan nan nan
263 268 270 277 280 288 292 292 301 301 309 325 321 295 299 295 283 277 271 274 265 265 275 264 249 262 256 272 286 286 274 282 290 286 289 289 293 292 266 263 291 306 303 290 283 289 291 290 296 289 288 287 287 283 279 274 261 nan nan 248 247 249 254 256 257 258 256 255 253 251 252 253 265 277 279 279 276 274 269 nan nan nan nan nan nan
267 268 269 280 290 290 299 299 300 306 314 312 305 292 288 286 286 283 288 279 269 264 262 256 273 270 267 278 281 284 284 278 275 275 278 285 290 296 303 296 294 292 289 288 289 298 302 316 315 310 300 298 290 282 272 nan nan nan nan nan nan 247 249 251 252 252 252 249 250 254 257 254 249 256 272 282 286 284 281 275 274 280 nan nan nan
274 271 268 272 281 294 284 284 297 298 308 305 289 290 286 286 286 281 284 279 271 264 268 260 262 275 264 272 270 272 282 284 279 271 276 277 286 291 288 298 299 291 281 282 295 305 307 309 318 320 310 295 288 283 nan nan nan nan nan nan nan nan nan 251 252 252 253 253 254 252 265 265 262 259 255 257 271 285 286 281 275 273 279 278 nan
278 283 288 297 300 293 304 315 309 308 318 320 308 301 292 288 285 283 281 276 275 265 269 278 273 265 272 277 267 268 271 278 281 272 273 276 283 288 287 287 283 276 279 291 297 307 311 318 301 285 284 290 280 274 274 nan nan nan nan nan nan nan nan nan nan 254 254 255 253 253 260 259 260 267 268 265 263 269 285 284 280 278 280 279 276
264 267 277 284 294 309 321 320 316 318 325 325 320 305 305 301 293 284 282 274 270 268 264 265 272 270 265 260 268 276 286 291 280 271 269 277 284 286 292 297 299 295 286 293 306 308 301 nan 286 280 279 nan nan nan nan nan nan nan nan nan nan nan nan nan nan nan 252 251 252 252 253 257 255 261 266 268 268 265 270 282 283 281 278 278 nan
249 252 253 266 275 285 296 311 310 317 321 321 312 304 313 312 302 294 285 280 277 276 278 272 263 269 277 252 264 270 281 283 276 282 275 266 273 281 285 293 298 296 299 304 309 nan nan nan nan nan nan nan nan nan nan nan nan nan nan nan nan nan nan nan nan nan nan 250 249 251 252 253 253 248 247 250 265 278 281 276 281 287 281 278 276
247 255 259 265 275 282 288 280 300 304 309 308 302 310 306 298 294 295 287 289 292 283 286 284 294 280 272 267 261 269 267 261 273 281 282 283 274 260 288 300 302 306 311 306 nan nan nan nan nan nan nan nan nan nan nan nan nan nan nan nan nan nan nan nan nan nan nan nan 250 251 249 247 247 nan 244 243 241 263 276 285 280 277 285 286 282
245 246 255 265 272 277 283 289 291 294 288 278 287 290 295 301 300 292 288 285 283 288 293 299 294 278 280 281 290 271 266 266 269 275 281 283 nan nan nan nan nan nan nan nan nan nan nan nan nan nan nan nan nan nan nan nan nan nan nan nan nan nan nan nan nan nan nan nan nan nan nan nan nan nan nan nan nan 245 263 287 284 281 288 286 284
260 268 277 278 283 291 282 279 272 268 272 275 274 280 289 298 296 297 295 290 285 284 283 286 282 288 288 288 276 275 270 270 268 269 273 275 285 nan nan nan nan nan nan nan nan nan nan nan nan nan nan nan nan nan nan nan nan nan nan nan nan nan nan nan nan nan nan nan nan nan nan nan nan nan nan nan nan nan 249 256 274 275 272 280 286
272 269 269 272 274 286 296 288 278 277 283 285 287 287 286 290 295 298 297 292 286 279 281 271 272 272 275 274 276 274 277 279 289 283 283 288 287 nan nan nan nan nan nan nan nan nan nan nan nan nan nan nan nan nan nan nan nan nan nan nan nan nan nan nan nan nan nan nan nan nan nan nan nan nan nan nan nan nan nan 259 257 260 265 267 272
287 284 285 288 286 283 285 285 282 283 282 282 283 285 286 287 290 288 286 283 286 286 276 274 271 273 274 278 275 275 281 282 284 284 291 296 298 nan nan nan nan nan nan nan nan nan nan nan nan nan nan nan nan nan nan nan nan nan nan nan nan nan nan nan nan nan nan nan nan nan nan nan nan nan nan nan nan nan nan nan nan 260 259 262 267
293 289 285 284 287 289 285 284 286 276 274 nan 269 279 283 290 290 286 284 279 277 279 278 274 270 268 270 268 272 274 279 280 284 294 290 292 303 nan nan nan nan nan nan nan nan nan nan nan nan nan nan nan nan nan nan nan nan nan nan nan nan nan nan nan nan nan nan nan nan nan nan nan nan nan nan nan nan nan nan nan nan nan nan nan nan
292 287 290 284 276 nan nan nan 287 284 274 271 275 285 294 291 287 284 284 284 283 276 273 271 267 266 268 272 278 288 290 296 303 304 303 306 306 299 nan nan nan nan nan nan nan nan nan nan nan nan nan nan nan nan nan nan nan nan nan nan nan nan nan nan nan nan nan nan nan nan nan nan nan nan nan nan nan nan nan nan nan nan nan nan nan
278 276 nan nan nan nan 285 289 289 nan nan 282 nan nan 275 nan 279 281 281 282 277 274 272 nan nan nan nan nan nan nan 291 298 301 308 312 313 312 nan nan nan nan nan nan nan nan nan nan nan nan nan nan nan nan nan nan nan nan nan nan nan nan nan nan nan nan nan nan nan nan nan nan nan nan nan nan nan nan nan nan nan nan nan nan nan nan
nan nan nan nan nan nan nan 299 303 302 nan nan nan nan nan nan nan nan nan nan 294 nan nan nan nan nan nan nan nan nan nan nan nan nan nan nan nan nan nan nan nan nan nan nan nan nan nan nan nan nan nan nan nan nan nan nan nan nan nan nan nan nan nan nan nan nan nan nan nan nan nan nan nan nan nan nan nan nan nan nan nan nan nan nan nan
nan nan nan nan nan nan nan nan 294 nan nan nan nan nan nan nan nan nan nan nan nan nan nan nan nan nan nan nan nan nan nan nan nan nan nan nan nan nan 281 nan 292 nan nan nan nan nan nan nan nan nan nan nan nan nan nan nan nan nan nan nan nan nan nan nan nan nan nan nan nan nan nan nan nan nan nan nan nan nan nan nan nan nan nan nan nan
nan nan nan nan nan nan nan nan nan nan nan nan nan nan nan nan nan nan nan nan nan nan nan nan nan nan nan nan nan nan nan nan nan nan nan nan nan nan nan nan nan nan nan nan nan nan nan nan nan nan nan nan nan nan nan nan nan nan nan nan nan nan nan nan nan nan nan nan nan nan nan nan nan nan nan nan nan nan nan nan nan nan nan nan nan
nan nan nan nan nan nan nan nan nan nan nan nan nan nan nan nan nan nan nan nan nan nan nan nan nan nan nan nan nan nan 288 281 nan nan nan 276 nan nan nan nan nan nan nan nan nan nan nan nan nan nan nan nan nan nan nan nan nan nan nan nan nan nan nan nan nan nan nan nan nan nan nan nan nan nan nan nan nan nan nan nan nan nan nan nan nan
nan nan nan nan nan nan nan nan nan nan nan nan nan nan nan nan nan nan nan nan nan nan nan nan nan nan nan nan nan nan nan nan nan nan nan nan nan nan nan nan nan nan nan nan nan nan nan nan nan nan nan nan nan nan nan nan nan nan nan nan nan nan nan nan nan nan nan nan nan nan nan nan nan nan nan nan nan nan nan nan nan nan nan nan nan
nan nan nan nan nan nan nan nan nan nan nan nan nan nan nan nan nan nan nan nan nan nan nan nan nan nan nan nan nan nan nan nan nan nan nan nan nan nan nan nan nan nan nan nan nan nan nan nan nan nan nan nan nan nan nan nan nan nan nan nan nan nan nan nan nan nan nan nan nan nan nan nan nan nan nan nan nan nan nan nan nan nan nan nan nan
nan nan nan nan nan nan nan nan nan nan nan nan nan nan nan nan nan nan nan nan nan nan nan nan nan nan nan nan nan nan nan nan nan nan nan nan nan nan nan nan nan nan nan nan nan nan nan nan nan nan nan nan nan nan nan nan nan nan nan nan nan nan nan nan nan nan nan nan nan nan nan nan nan nan nan nan nan nan nan nan nan nan nan nan nan
nan nan nan nan nan nan nan nan nan nan nan nan nan nan nan nan nan nan nan nan nan nan nan nan nan nan nan nan nan nan nan nan nan nan nan nan nan nan nan nan nan nan nan nan nan nan nan nan nan nan nan nan nan nan nan nan nan nan nan nan nan nan nan nan nan nan nan nan nan nan nan nan nan nan nan nan nan nan nan nan nan nan nan nan nan
nan nan nan nan nan nan nan nan nan nan nan nan nan nan nan nan nan nan nan nan nan nan nan nan nan nan nan nan nan nan nan nan nan nan nan nan nan nan nan nan nan nan nan nan nan nan nan nan nan nan nan nan nan nan nan nan nan nan nan nan nan nan nan nan nan nan nan nan nan nan nan nan nan nan nan nan nan nan nan nan nan nan nan nan nan
nan nan nan nan nan nan nan nan nan nan nan nan nan nan nan nan nan nan nan nan nan nan nan nan nan nan nan nan nan nan nan nan nan nan nan nan nan nan nan nan nan nan nan nan nan nan nan nan nan nan nan nan nan nan nan nan nan nan nan nan nan nan nan nan nan nan nan nan nan nan nan nan nan nan nan nan nan nan nan nan nan nan nan nan nan
nan nan nan nan nan nan nan nan nan nan nan nan nan nan nan nan nan nan nan nan nan nan nan nan nan nan nan nan nan nan nan nan nan nan nan nan nan nan nan nan nan nan nan nan nan nan nan nan nan nan nan nan nan nan nan nan nan nan nan nan nan nan nan nan nan nan nan nan nan nan nan nan nan nan nan nan nan nan nan nan nan nan nan nan nan
nan nan nan nan nan nan nan nan nan nan nan nan nan nan nan nan nan nan 279 nan nan nan nan nan nan nan nan nan nan nan nan 284 nan 281 nan nan nan nan nan nan nan nan nan nan nan nan nan nan nan nan nan nan nan nan nan nan nan nan nan nan nan nan nan nan nan nan nan nan nan nan nan nan nan nan nan nan nan nan nan nan nan nan nan nan nan
nan nan nan nan nan nan nan nan nan nan nan nan nan nan nan 277 281 286 287 284 nan 277 280 nan nan nan nan 284 286 nan nan 283 284 nan nan nan nan nan nan nan nan nan nan nan nan nan nan nan nan nan nan nan nan nan nan nan nan nan nan nan nan nan nan nan nan nan nan nan nan nan nan nan nan nan nan nan nan nan nan nan nan nan nan nan nan
261 nan nan nan nan nan nan nan nan nan nan nan nan nan 274 nan 281 285 287 289 287 286 286 289 290 290 289 285 275 267 273 nan nan nan nan nan nan nan nan nan nan nan nan nan nan nan nan nan nan nan nan nan nan nan nan nan nan nan nan nan nan nan nan nan nan nan nan nan nan nan nan nan nan nan nan nan nan nan nan nan nan nan nan nan nan
250 258 254 260 nan nan nan nan nan 272 271 270 270 nan nan 272 282 286 285 286 288 287 289 292 291 289 283 278 nan 278 nan nan nan nan nan nan nan nan nan nan nan nan nan nan nan nan nan nan nan nan nan nan nan nan nan nan nan nan nan nan nan nan nan nan nan nan nan nan nan nan nan nan nan nan nan nan nan nan nan nan nan nan nan nan nan
254 249 255 264 268 271 nan 267 268 267 269 266 nan nan nan nan 273 279 279 282 283 283 285 287 288 284 280 279 274 270 272 278 nan nan nan nan nan nan nan nan nan nan nan nan nan nan nan nan nan nan nan nan nan nan nan nan nan nan nan nan nan nan nan nan nan nan nan nan nan nan nan nan nan nan nan nan nan nan nan nan nan nan nan nan nan
261 258 251 251 262 269 271 270 271 272 267 264 263 270 nan nan 268 275 279 281 282 282 282 282 273 271 272 275 280 281 280 279 nan nan nan nan nan nan nan nan nan nan nan nan nan nan nan nan nan nan nan nan nan nan nan nan nan nan nan nan nan nan nan nan nan nan nan nan nan nan nan nan nan nan nan nan nan nan nan nan nan nan nan nan nan
259 261 260 262 263 265 269 272 273 272 273 276 274 267 272 275 274 273 275 279 281 281 279 275 278 281 284 285 286 286 283 292 287 nan 283 282 nan nan nan nan nan nan nan nan nan nan nan nan nan nan nan nan nan nan nan nan nan nan nan nan nan nan nan nan nan nan nan nan nan nan nan nan nan nan nan nan nan nan nan nan nan nan nan nan nan
276 274 274 272 271 269 268 268 271 275 278 280 281 284 287 285 282 279 277 276 278 278 273 275 278 280 284 286 286 289 290 291 290 288 288 nan 287 nan nan nan nan nan nan nan nan nan nan nan nan nan nan nan nan nan nan nan nan nan nan nan nan nan nan nan nan nan nan nan nan nan nan nan nan nan nan nan nan nan nan nan nan nan nan nan nan
289 286 283 280 276 274 274 274 273 274 279 288 293 288 283 284 284 279 276 275 273 275 277 276 274 276 279 283 287 288 288 289 289 289 nan 286 286 nan nan 283 281 nan nan nan nan nan nan nan nan nan nan nan nan nan nan nan nan nan nan nan nan nan nan nan nan nan nan nan nan nan nan nan nan nan nan nan nan nan nan nan nan nan nan nan nan
273 276 276 276 276 277 276 276 276 275 281 289 288 285 286 283 278 274 273 nan nan 276 278 280 282 285 285 284 285 287 287 288 291 293 nan nan nan nan 283 283 nan nan nan nan nan nan nan nan nan nan nan nan nan nan nan nan nan nan nan nan nan nan nan nan nan nan nan nan nan nan nan nan nan nan nan nan nan nan nan nan nan nan nan nan nan
268 272 274 275 275 274 274 274 275 277 279 286 282 281 282 283 279 275 275 nan nan 277 278 280 283 281 282 285 284 nan nan 286 289 nan nan nan nan nan nan nan nan nan nan nan nan nan nan nan nan nan nan nan nan nan nan nan nan nan nan nan nan nan nan nan nan nan nan nan nan nan nan nan nan nan nan nan nan nan nan nan nan nan nan nan nan
275 274 274 273 272 271 270 272 276 277 278 284 290 286 281 281 282 279 278 278 278 279 278 nan 278 277 nan nan nan 283 nan 286 291 nan 291 288 283 nan nan nan nan nan nan nan nan nan nan nan nan nan nan nan nan nan nan nan nan nan nan nan nan nan nan nan nan nan nan nan nan nan nan nan nan nan nan nan nan nan nan nan nan nan nan nan nan
274 273 274 273 272 273 273 272 276 277 274 273 274 280 285 286 284 280 281 280 281 279 277 277 277 nan nan nan nan 273 279 nan nan 284 287 284 280 nan nan nan nan nan nan nan nan nan nan nan nan nan nan nan nan nan nan nan nan nan nan nan nan nan nan nan nan nan nan nan nan nan nan nan nan nan nan nan nan nan nan nan nan nan nan nan nan